Location: Valencia
(39.4696°N, 0.3770°W)
Time: 02:31:47
(UTC+01:00)

ISS - Visible Passes

Search period start: 24 January 2018 00:00
Search period end: 03 February 2018 00:00
Orbit: 402 x 407 km, 51.6° (Epoch: 24 January)

Date Brightness Start Highest point End Pass type
(mag) Time Alt. Az. Time Alt. Az. Time Alt. Az.
24 Jan -1.7 19:00:33 10° SSE 19:02:11 13° SE 19:03:26 11° ESE visible
24 Jan -1.1 20:35:05 10° WSW 20:36:07 19° WSW 20:36:07 19° WSW visible
25 Jan -3.9 19:42:47 10° SW 19:46:00 68° SE 19:46:21 61° E visible
26 Jan -2.8 18:50:49 10° SSW 18:53:46 32° SE 18:56:29 12° ENE visible
26 Jan -1.5 20:27:22 10° W 20:29:09 23° WNW 20:29:09 23° WNW visible
27 Jan -3.1 19:34:39 10° WSW 19:37:49 48° NNW 19:39:12 28° NNE visible
28 Jan -3.8 18:42:12 10° SW 18:45:28 87° SE 18:48:43 10° NE visible
28 Jan -1.3 20:20:03 10° WNW 20:21:50 17° NNW 20:21:50 17° NNW visible
29 Jan -2.0 19:26:59 10° W 19:29:44 24° NNW 19:31:44 15° NNE visible
30 Jan -1.1 20:12:59 10° NW 20:14:13 12° NNW 20:14:13 12° NNW visible
31 Jan -1.4 19:19:40 10° WNW 19:21:43 16° NNW 19:23:48 10° NNE visible
01 Feb -1.0 20:06:09 10° NNW 20:06:25 10° N 20:06:25 10° N visible
02 Feb -1.2 19:12:36 10° NNW 19:13:47 11° N 19:14:59 10° N visible
